DW9565 Weather Reports


Display with metric or nautical units.
time (UTC)temp
F
wind
direction
speed
MPH
gust
MPH
rain 1hr
in
rain 24hr
in
rain mn
in
humidity
%
barometer
mb
20260901071512 62 149 9.0 15.0 0.00 0.00 0.00 46 1015.9
20260901070010 61 180 6.0 14.0 0.00 0.00 0.00 47 1015.9
20260901064508 61 167 6.0 12.0 0.00 0.00 0.00 48 1016.0
20260901063006 58 195 3.0 7.0 0.00 0.00 0.00 54 1015.9
20260901061508 58 247 4.0 7.0 0.00 0.00 0.00 53 1016.0
20260901060059 60 190 3.0 6.0 0.00 0.00 0.00 49 1016.0
20260901054600 61 259 4.0 10.0 0.00 0.00 0.00 48 1016.0
20260901053100 60 24 3.0 5.0 0.00 0.00 0.00 48 1016.2
20260901051616 62 80 1.0 4.0 0.00 0.00 0.00 45 1016.2
20260901044556 62 96 0.0 3.0 0.00 0.00 0.00 47 1016.3
20260901043057 60 177 1.0 3.0 0.00 0.00 0.00 49 1016.2
20260901041555 61 269 1.0 3.0 0.00 0.00 0.00 46 1016.3
20260901040056 60 269 1.0 3.0 0.00 0.00 0.00 48 1016.3
20260901034604 60 269 2.0 3.0 0.00 0.01 0.00 48 1016.1
20260901033109 62 269 1.0 6.0 0.00 0.01 0.00 46 1015.9
20260901031554 62 211 1.0 3.0 0.00 0.01 0.00 47 1015.9
20260901030054 61 206 1.0 4.0 0.00 0.01 0.00 48 1015.8
20260901024557 61 180 0.0 3.0 0.00 0.03 0.00 47 1015.8
20260901023055 61 180 0.0 5.0 0.00 0.03 0.00 50 1015.7
20260901021552 62 180 1.0 4.0 0.00 0.03 0.00 50 1015.7
20260901020051 64 180 2.0 4.0 0.00 0.03 0.00 48 1015.8
20260901014601 65 180 1.0 3.0 0.00 0.04 0.00 47 1015.8
20260901013050 67 180 2.0 5.0 0.00 0.04 0.00 44 1015.8
20260901011549 69 215 3.0 7.0 0.00 0.04 0.00 41 1015.9
20260901010049 70 216 3.0 7.0 0.00 0.04 0.00 38 1015.9
20260901004559 70 189 4.0 7.0 0.00 0.04 0.00 39 1016.1
20260901003048 71 204 5.0 10.0 0.00 0.04 0.00 37 1016.1
20260901001553 72 252 6.0 10.0 0.00 0.04 0.00 36 1016.1
20260901000058 71 231 7.0 14.0 0.00 0.04 0.00 36 1016.2
20260831234545 72 239 5.0 11.0 0.00 0.04 0.00 37 1016.1
20260831233044 71 213 3.0 10.0 0.00 0.04 0.00 38 1016.2
20260831231544 71 265 9.0 14.0 0.00 0.04 0.00 37 1016.3
20260831230044 70 101 1.0 6.0 0.00 0.04 0.00 41 1016.4
20260831224540 70 273 1.0 9.0 0.00 0.04 0.00 40 1016.4
20260831223039 70 249 2.0 12.0 0.00 0.04 0.00 41 1016.4
20260831221540 70 258 6.0 14.0 0.00 0.04 0.00 41 1016.4
20260831220039 70 271 4.0 11.0 0.00 0.04 0.00 41 1016.4
20260831214538 70 277 4.0 12.0 0.00 0.04 0.00 41 1016.5
20260831213034 69 221 2.0 12.0 0.00 0.04 0.00 43 1016.5
20260831211533 69 259 5.0 14.0 0.00 0.04 0.00 44 1016.5
20260831210031 69 257 10.0 19.0 0.00 0.04 0.00 44 1016.5
20260831204530 68 252 6.0 17.0 0.00 0.04 0.00 44 1016.8
20260831203028 67 271 10.0 16.0 0.00 0.04 0.00 45 1016.9
20260831201527 67 251 13.0 18.0 0.00 0.04 0.00 45 1016.9
20260831200026 67 249 11.0 17.0 0.00 0.04 0.00 46 1017.0
20260831194524 66 310 8.0 18.0 0.00 0.04 0.00 47 1017.0
20260831193036 66 300 5.0 21.0 0.00 0.04 0.00 47 1017.3
20260831191523 66 228 7.0 12.0 0.00 0.04 0.00 49 1017.3
20260831190037 65 302 5.0 18.0 0.00 0.04 0.00 49 1017.3
20260831184520 65 293 12.0 18.0 0.00 0.04 0.00 49 1017.5
20260831183018 65 270 10.0 19.0 0.00 0.04 0.00 51 1017.5
20260831181516 64 271 10.0 19.0 0.00 0.04 0.00 52 1017.6
20260831180014 63 265 12.0 19.0 0.00 0.04 0.00 53 1017.6
20260831174513 63 273 12.0 21.0 0.00 0.04 0.00 52 1017.6
20260831173010 62 281 14.0 24.0 0.00 0.04 0.00 54 1017.6
20260831171509 61 284 11.0 16.0 0.00 0.04 0.00 56 1017.7
20260831170008 61 281 9.0 20.0 0.00 0.04 0.00 58 1017.8
20260831164513 60 333 10.0 16.0 0.00 0.04 0.00 58 1017.7
20260831163004 61 297 11.0 20.0 0.00 0.04 0.00 60 1017.6
20260831161502 60 260 12.0 19.0 0.00 0.04 0.00 60 1017.6
20260831160059 58 246 10.0 19.0 0.00 0.04 0.00 60 1017.5
20260831154601 58 270 12.0 18.0 0.00 0.04 0.00 61 1017.5
20260831153109 57 292 11.0 17.0 0.00 0.04 0.00 59 1017.5
20260831151552 57 264 13.0 18.0 0.00 0.04 0.00 60 1017.5
20260831150049 56 269 12.0 16.0 0.00 0.04 0.00 63 1017.3
20260831144545 55 257 11.0 17.0 0.00 0.04 0.00 64 1017.2
20260831143045 54 277 13.0 20.0 0.00 0.04 0.00 64 1017.1
20260831141542 54 275 13.0 20.0 0.00 0.04 0.00 65 1016.9
20260831140037 53 271 13.0 20.0 0.00 0.04 0.00 66 1016.6
20260831134534 52 266 14.0 20.0 0.00 0.04 0.00 67 1016.5
20260831133033 51 267 13.0 19.0 0.00 0.04 0.00 67 1016.4
20260831131537 51 265 12.0 17.0 0.00 0.04 0.00 67 1016.4
20260831130032 51 247 12.0 16.0 0.00 0.04 0.00 67 1016.1
20260831124530 51 254 11.0 16.0 0.00 0.04 0.00 67 1016.1
20260831123028 51 239 7.0 14.0 0.00 0.04 0.00 68 1015.9
20260831121528 50 248 8.0 13.0 0.00 0.04 0.00 68 1015.9
20260831120036 50 217 9.0 13.0 0.00 0.04 0.00 68 1015.7
20260831114524 50 248 8.0 14.0 0.00 0.04 0.00 68 1015.6
20260831113024 51 228 9.0 16.0 0.00 0.04 0.00 67 1015.6
20260831111521 51 213 10.0 16.0 0.00 0.04 0.00 67 1015.3
20260831110021 51 261 13.0 20.0 0.00 0.04 0.00 66 1015.1
20260831104524 52 257 14.0 21.0 0.00 0.04 0.00 65 1015.2
20260831103017 52 246 16.0 21.0 0.00 0.04 0.00 65 1014.9
20260831101515 52 260 17.0 22.0 0.00 0.04 0.00 65 1014.7
20260831100013 52 244 17.0 26.0 0.00 0.04 0.00 65 1014.3
20260831094522 52 257 18.0 27.0 0.00 0.04 0.00 64 1014.2
20260831093017 52 238 18.0 30.0 0.00 0.04 0.00 64 1014.0
20260831091519 52 265 17.0 28.0 0.00 0.04 0.00 64 1014.0
20260831090010 52 240 18.0 27.0 0.00 0.04 0.00 64 1013.8
20260831084526 53 259 19.0 27.0 0.00 0.04 0.00 64 1013.8
20260831083008 52 247 18.0 25.0 0.00 0.04 0.00 64 1013.4
20260831081506 52 260 16.0 25.0 0.00 0.04 0.00 64 1013.5
20260831080016 52 263 15.0 26.0 0.00 0.04 0.00 64 1013.3
20260831074513 52 244 17.0 28.0 0.00 0.04 0.00 64 1013.3
20260831073003 52 243 18.0 27.0 0.00 0.04 0.00 64 1013.4